Home > Weather > Tychy > Past weeks

Flag for Poland Past Weather in Tychy, Poland — Yesterday and Last 2 Weeks

Now
66 °F

Thunderstorms. Broken clouds.


Feels Like: 66 °F
Forecast: 56 / 75 °F
Wind: 20 mph from Southeast

Location: Katowice Airport

Current Time: May 30, 2016 at 6:32:24 PM

Latest Report: May 30, 2016 at 6:00 PM


Visibility: 2 mi

Pressure: 29.77 "Hg

Humidity: 83%

Dew Point: 61 °F

Location of TychyLocation

Past Weather in Tychy — Graph

°F

Tychy Temperature Yesterday

Maximum temperature yesterday: 75 °F (at 12:00 PM)
Minimum temperature yesterday: 59 °F (at 3:00 AM)
Average temperature yesterday: 64 °F

High & Low Weather Summary for the Past Weeks

 TemperatureHumidityPressure
High81 °F (May 23, 1:30 PM)100% (May 17, 9:30 PM)30.09 "Hg (May 17, 9:30 PM)
Low36 °F (May 16, 2:00 AM)26% (May 23, 4:00 PM)29.65 "Hg (May 24, 5:30 PM)
Average58 °F71%29.93 "Hg
* Reported May 15 5:00 PM — May 30 5:00 PM, Tychy, Weather by CustomWeather, © 2016

Note: Actual official high and low records may vary slightly from our data, if they occured in-between our weather recording intervals... More about our weather records

Advertising

Tychy Weather History for the Previous 24 Hours

Scroll right to see more
 ConditionsComfort  
Time TempWeatherWind HumidityBarometerVisibility
5:00 PM
Mon, May 30
75 °FSprinkles. Partly sunny.7 mph41%29.74 "HgN/A
4:30 PM77 °FScattered clouds.8 mph51%29.74 "HgN/A
4:00 PM79 °FPassing clouds.7 mph45%29.74 "HgN/A
3:30 PM81 °FPassing clouds.8 mph39%29.74 "HgN/A
3:00 PM81 °FPassing clouds.7 mph39%29.74 "HgN/A
2:30 PM79 °FSunny.12 mph42%29.74 "Hg10 mi
2:00 PM81 °FPassing clouds.12 mph39%29.74 "HgN/A
1:00 PM77 °FSunny.14 mph47%29.77 "Hg10 mi
12:30 PM75 °FPassing clouds.12 mph50%29.77 "HgN/A
12:00 PM77 °FPassing clouds.9 mph54%29.77 "HgN/A
11:30 AM77 °FSunny.7 mph47%29.77 "Hg10 mi
11:00 AM75 °FPassing clouds.9 mph50%29.77 "HgN/A
10:30 AM75 °FPassing clouds.7 mph54%29.77 "HgN/A
10:00 AM73 °FPassing clouds.7 mph57%29.77 "HgN/A
9:30 AM72 °FPassing clouds.8 mph61%29.77 "HgN/A
9:00 AM70 °FPassing clouds.8 mph69%29.77 "HgN/A
8:30 AM68 °FPassing clouds.8 mph78%29.77 "HgN/A
8:00 AM66 °FSunny.9 mph78%29.77 "Hg10 mi
7:30 AM66 °FSunny.8 mph73%29.77 "Hg10 mi
7:00 AM64 °FPassing clouds.8 mph78%29.77 "HgN/A
6:30 AM63 °FSunny.7 mph83%29.77 "Hg10 mi
6:00 AM63 °FPassing clouds.16 mph83%29.77 "HgN/A
5:30 AM59 °FClear.9 mph94%29.74 "Hg10 mi
5:00 AM57 °FClear.8 mph94%29.74 "Hg10 mi
4:30 AM57 °FClear.9 mph94%29.77 "Hg10 mi
4:00 AM59 °FClear.9 mph88%29.77 "Hg10 mi
3:30 AM59 °FClear.9 mph94%29.77 "Hg10 mi
3:00 AM59 °FClear.9 mph94%29.77 "Hg10 mi
2:30 AM59 °FClear.8 mph94%29.77 "Hg10 mi
2:00 AM61 °FClear.8 mph88%29.77 "Hg10 mi
1:30 AM59 °FClear.7 mph94%29.77 "Hg10 mi
1:00 AM59 °FClear.7 mph94%29.80 "Hg10 mi
12:30 AM59 °FClear.7 mph94%29.80 "Hg10 mi
12:00 AM59 °FClear.6 mph94%29.80 "Hg10 mi
11:30 PM
Sun, May 29
61 °FClear.7 mph94%29.80 "Hg10 mi
11:00 PM61 °FClear.7 mph94%29.80 "Hg10 mi
10:30 PM63 °FClear.6 mph88%29.80 "Hg10 mi
10:00 PM63 °FClear.7 mph88%29.80 "Hg10 mi
9:30 PM64 °FSunny.8 mph83%29.80 "Hg10 mi
9:00 PM64 °FSunny.8 mph88%29.80 "Hg10 mi
8:30 PM66 °FSunny.7 mph78%29.80 "Hg10 mi
8:00 PM66 °FSunny.6 mph83%29.80 "Hg10 mi
7:30 PM64 °FSunny.6 mph83%29.80 "Hg10 mi
7:00 PM64 °FPassing clouds.6 mph88%29.80 "HgN/A
6:30 PM63 °FSprinkles. Scattered clouds.8 mph94%29.83 "HgN/A
6:00 PM64 °FSprinkles. Scattered clouds.5 mph88%29.83 "HgN/A
Weather by CustomWeather, © 2016

See weather overviewHow to use our weather pages